This is the latest recevied weather packets stored in our database for station/object WB5CFT. If no packets are shown the sender has not sent any weather packets the latest 1 day(s).
| Time | Temp. | Humidity | Pressure | Rain* | Wind** | Luminosity | Snow |
|---|---|---|---|---|---|---|---|
| 1836274645 | 20.56° C | 76% | 1020.1 hPa | 1.78 mm | 1.34 m/s, 133° | 0 W/m² | - |
| 1836274498 | 21.11° C | 76% | 1020 hPa | 1.27 mm | 2.24 m/s, 124° | 0 W/m² | - |
| 1836274343 | 20.56° C | 76% | 1020.1 hPa | 1.78 mm | 3.13 m/s, 87° | 0 W/m² | - |
| 1836274197 | 21.11° C | 75% | 1020 hPa | 0 mm | 2.24 m/s, 121° | 0 W/m² | - |
| 1836274042 | 20.56° C | 75% | 1020.6 hPa | 0 mm | 3.58 m/s, 99° | 0 W/m² | - |
| 1778050991 | 21.11° C | 38% | 1011.6 hPa | 0 mm | 0 m/s | 0 W/m² | - |
| 1778050688 | 21.11° C | 38% | 1011.5 hPa | 0 mm | 0 m/s | 0 W/m² | - |
| 1778050385 | 21.67° C | 37% | 1011.7 hPa | 0 mm | 0 m/s | 0 W/m² | - |
| 1778050082 | 21.67° C | 36% | 1011.4 hPa | 0 mm | 0 m/s | 0 W/m² | - |
| 1778049777 | 20.56° C | 38% | 1011.5 hPa | 0 mm | 0 m/s | 0 W/m² | - |
| 1778049475 | 21.11° C | 39% | 1011.4 hPa | 0 mm | 0 m/s | 0 W/m² | - |
| 1778049172 | 21.11° C | 39% | 1011.5 hPa | 0 mm | 0 m/s | 0 W/m² | - |
| 1778048871 | 21.67° C | 40% | 1011.4 hPa | 0 mm | 0 m/s | 0 W/m² | - |
| 1778048568 | 21.11° C | 39% | 1011.6 hPa | 0 mm | 0 m/s | 0 W/m² | - |
| 1778048263 | 21.11° C | 40% | 1011.3 hPa | 0 mm | 0 m/s | 0 W/m² | - |
| 1778047961 | 20.56° C | 40% | 1011.3 hPa | 0 mm | 0 m/s | 0 W/m² | - |
| 1778047659 | 20° C | 42% | 1011.3 hPa | 0 mm | 0 m/s | 0 W/m² | - |
| 1778047357 | 20.56° C | 44% | 1011.2 hPa | 0 mm | 0 m/s | 0 W/m² | - |
| 1778047053 | 20° C | 45% | 1011.1 hPa | 0 mm | 0 m/s | 0 W/m² | - |
| 1778046750 | 19.44° C | 46% | 1011.3 hPa | 0 mm | 0 m/s | 0 W/m² | - |
| 1778046447 | 20° C | 45% | 1011.3 hPa | 0 mm | 0 m/s | 0 W/m² | - |
| 1778046143 | 20° C | 44% | 1011.1 hPa | 0 mm | 0.89 m/s, 185° | 0 W/m² | - |
| 1778045840 | 20° C | 45% | 1011.2 hPa | 0 mm | 0 m/s | 0 W/m² | - |
| 1778045539 | 19.44° C | 46% | 1011 hPa | 0 mm | 0 m/s | 0 W/m² | - |
| 1778045237 | 19.44° C | 47% | 1011.1 hPa | 0 mm | 0 m/s | 0 W/m² | - |
* Rain latest hour (hover to see other rain measurements)
** Current wind speed in m/s (hover to see current wind gust speed)